Retour au catalogue

STARLINK-37049

ActifCommunicationsSSO
NORAD 68152·PAYLOAD·🇺🇸 United States

Lancé Mar 13, 2026 depuis Vandenberg Space Force Base

Loading…

Prochains Passages (prochaines 24 heures)

TLE

FraisSource: CelesTrak SupGP

Époque: Sep 15, 2026, 03:58 UTC

1 68152C 26049L   26258.16576389 -.00068745  00000+0 -21345-2 0  2587
2 68152  97.2838 278.2684 0000971  96.1392  66.5505 15.33467785    12

Suivez STARLINK-37049 en temps réel avec AllMySat

Download on the App Store